Location: Newark
(25.0000°N, 73.5000°E)
Time: 22:43:20
(UTC+00:00)

STARLINK-2646 - Pass Details

Date: 16 June 2021
Orbit: 546 x 548 km, 53.1° (Epoch: 03 August)

Event Time Altitude Azimuth Distance (km) Brightness Sun altitude
Exits shadow 23:32:03 11° 217° (SW) 1,746 5.6 -9.6°
Maximum altitude 23:36:01 86° 128° (SE) 551 3.6 -8.8°
Drops below altitude 10° 23:40:09 10° 40° (NE) 1,817 7.6 -8.0°
Sets 23:42:23 0° 40° (NE) 2,713 8.8 -7.6°
